Time,TemperatureF,DewpointF,PressureIn,WindDirection,WindDirectionDegrees,WindSpeedMPH,WindSpeedGustMPH,Humidity,HourlyPrecipIn,Conditions,Clouds,dailyrainin,SoftwareType,DateUTC
2013-06-14 00:01:00,62.2,60.2,29.89,NW,324,0.0,0.0,93,0.00,,,0.00,Wunderground v.1.15,2013-06-14 04:01:00,
2013-06-14 00:02:00,62.2,60.2,29.89,NW,324,0.0,0.0,93,0.00,,,0.00,Wunderground v.1.15,2013-06-14 04:02:00,
2013-06-14 00:05:00,62.1,60.1,29.89,NW,324,0.0,0.0,93,0.00,,,0.00,Wunderground v.1.15,2013-06-14 04:05:00,
2013-06-14 00:06:00,62.1,60.1,29.90,NW,324,0.0,0.0,93,0.00,,,0.00,Wunderground v.1.15,2013-06-14 04:06:00,
2013-06-14 00:08:00,62.1,60.1,29.90,NW,324,0.0,0.0,93,0.00,,,0.00,Wunderground v.1.15,2013-06-14 04:08:00,
2013-06-14 00:13:00,62.1,60.1,29.90,NW,324,0.0,0.0,93,0.00,,,0.00,Wunderground v.1.15,2013-06-14 04:13:00,
2013-06-14 00:19:00,62.0,60.0,29.90,NNW,340,0.0,1.0,93,0.00,,,0.00,Wunderground v.1.15,2013-06-14 04:19:00,
2013-06-14 00:25:00,62.1,60.1,29.90,NNW,341,1.0,4.0,93,0.00,,,0.00,Wunderground v.1.15,2013-06-14 04:25:00,
2013-06-14 00:30:00,62.1,60.1,29.90,NNW,341,1.0,3.0,93,0.00,,,0.00,Wunderground v.1.15,2013-06-14 04:30:00,
2013-06-14 00:36:00,62.1,60.1,29.90,NNW,341,1.0,3.0,93,0.00,,,0.00,Wunderground v.1.15,2013-06-14 04:36:00,
2013-06-14 00:41:00,62.0,59.6,29.91,NNW,341,0.0,3.0,92,0.00,,,0.00,Wunderground v.1.15,2013-06-14 04:41:00,
2013-06-14 00:47:00,62.0,59.3,29.91,North,355,2.0,7.0,91,0.00,,,0.00,Wunderground v.1.15,2013-06-14 04:47:00,
2013-06-14 00:53:00,62.4,58.8,29.91,North,11,4.0,8.0,88,0.00,,,0.00,Wunderground v.1.15,2013-06-14 04:53:00,
2013-06-14 00:58:00,62.6,59.3,29.91,NNW,330,3.0,8.0,89,0.00,,,0.00,Wunderground v.1.15,2013-06-14 04:58:00,
2013-06-14 01:04:00,62.5,58.6,29.90,North,360,1.0,3.0,87,0.00,,,0.00,Wunderground v.1.15,2013-06-14 05:04:00,
2013-06-14 01:10:00,62.3,58.7,29.90,North,9,0.0,0.0,88,0.00,,,0.01,Wunderground v.1.15,2013-06-14 05:10:00,
2013-06-14 01:15:00,62.1,58.5,29.90,North,9,0.0,0.0,88,0.00,,,0.01,Wunderground v.1.15,2013-06-14 05:15:00,
2013-06-14 01:21:00,61.9,58.3,29.91,NNE,32,1.0,1.0,88,0.00,,,0.01,Wunderground v.1.15,2013-06-14 05:21:00,
2013-06-14 01:27:00,61.7,58.1,29.91,NNE,32,1.0,1.0,88,0.00,,,0.01,Wunderground v.1.15,2013-06-14 05:27:00,
2013-06-14 01:32:00,61.4,58.1,29.91,WNW,295,0.0,0.0,89,0.00,,,0.01,Wunderground v.1.15,2013-06-14 05:32:00,
2013-06-14 01:38:00,61.1,58.1,29.91,WNW,296,0.0,0.0,90,0.00,,,0.01,Wunderground v.1.15,2013-06-14 05:38:00,
2013-06-14 01:43:00,60.8,58.2,29.91,NW,304,0.0,0.0,91,0.00,,,0.01,Wunderground v.1.15,2013-06-14 05:43:00,
2013-06-14 01:49:00,60.7,58.1,29.91,NNW,331,1.0,4.0,91,0.00,,,0.01,Wunderground v.1.15,2013-06-14 05:49:00,
2013-06-14 01:55:00,60.7,58.4,29.91,NNW,330,1.0,2.0,92,0.00,,,0.01,Wunderground v.1.15,2013-06-14 05:55:00,
2013-06-14 02:00:00,60.7,58.4,29.91,NNW,331,1.0,1.0,92,0.00,,,0.01,Wunderground v.1.15,2013-06-14 06:00:00,
2013-06-14 02:06:00,60.7,58.4,29.91,NNW,331,0.0,1.0,92,0.00,,,0.01,Wunderground v.1.15,2013-06-14 06:06:00,
2013-06-14 02:11:00,60.6,58.3,29.91,NNW,331,0.0,0.0,92,0.00,,,0.01,Wunderground v.1.15,2013-06-14 06:11:00,
2013-06-14 02:17:00,60.4,58.1,29.91,NNW,331,0.0,0.0,92,0.00,,,0.01,Wunderground v.1.15,2013-06-14 06:17:00,
2013-06-14 02:23:00,60.2,57.9,29.91,NNW,331,0.0,0.0,92,0.00,,,0.01,Wunderground v.1.15,2013-06-14 06:23:00,
2013-06-14 02:29:00,59.9,57.9,29.91,NNW,331,0.0,0.0,93,0.00,,,0.01,Wunderground v.1.15,2013-06-14 06:29:00,
2013-06-14 02:35:00,59.7,57.7,29.91,NNW,331,0.0,0.0,93,0.00,,,0.01,Wunderground v.1.15,2013-06-14 06:35:00,
2013-06-14 02:40:00,59.6,57.6,29.91,NNW,332,1.0,1.0,93,0.00,,,0.01,Wunderground v.1.15,2013-06-14 06:40:00,
2013-06-14 02:46:00,59.6,57.6,29.91,NNW,334,2.0,4.0,93,0.00,,,0.01,Wunderground v.1.15,2013-06-14 06:46:00,
2013-06-14 02:51:00,59.6,57.6,29.91,NNW,327,2.0,3.0,93,0.00,,,0.01,Wunderground v.1.15,2013-06-14 06:51:00,
2013-06-14 02:57:00,59.6,57.6,29.91,NNW,327,2.0,4.0,93,0.00,,,0.01,Wunderground v.1.15,2013-06-14 06:57:00,
2013-06-14 03:03:00,59.6,57.9,29.91,NW,317,2.0,5.0,94,0.00,,,0.01,Wunderground v.1.15,2013-06-14 07:03:00,
2013-06-14 03:08:00,59.7,58.0,29.91,NW,307,3.0,5.0,94,0.00,,,0.01,Wunderground v.1.15,2013-06-14 07:08:00,
2013-06-14 03:14:00,59.8,58.1,29.91,NNW,348,3.0,5.0,94,0.00,,,0.01,Wunderground v.1.15,2013-06-14 07:14:00,
2013-06-14 03:20:00,59.9,57.9,29.91,North,5,3.0,4.0,93,0.00,,,0.01,Wunderground v.1.15,2013-06-14 07:20:00,
2013-06-14 03:25:00,59.9,57.9,29.91,NW,315,2.0,4.0,93,0.00,,,0.01,Wunderground v.1.15,2013-06-14 07:25:00,
2013-06-14 03:31:00,59.9,57.9,29.91,NW,316,1.0,1.0,93,0.00,,,0.01,Wunderground v.1.15,2013-06-14 07:31:00,
2013-06-14 03:36:00,59.8,57.8,29.91,NW,316,1.0,5.0,93,0.00,,,0.01,Wunderground v.1.15,2013-06-14 07:36:00,
2013-06-14 03:42:00,59.7,57.7,29.90,NNW,346,1.0,3.0,93,0.00,,,0.01,Wunderground v.1.15,2013-06-14 07:42:00,
2013-06-14 03:48:00,59.6,57.9,29.91,North,351,1.0,4.0,94,0.00,,,0.01,Wunderground v.1.15,2013-06-14 07:48:00,
2013-06-14 03:53:00,59.6,57.9,29.91,NNW,328,2.0,5.0,94,0.00,,,0.01,Wunderground v.1.15,2013-06-14 07:53:00,
2013-06-14 03:59:00,59.5,57.8,29.91,NW,317,2.0,5.0,94,0.00,,,0.01,Wunderground v.1.15,2013-06-14 07:59:00,
2013-06-14 04:04:00,59.4,57.7,29.91,NW,312,2.0,4.0,94,0.00,,,0.01,Wunderground v.1.15,2013-06-14 08:04:00,
2013-06-14 04:10:00,59.4,57.7,29.91,NW,318,2.0,4.0,94,0.00,,,0.01,Wunderground v.1.15,2013-06-14 08:10:00,
2013-06-14 04:16:00,59.3,57.6,29.91,NNW,338,3.0,4.0,94,0.00,,,0.01,Wunderground v.1.15,2013-06-14 08:16:00,
2013-06-14 04:21:00,59.2,57.5,29.91,NNW,341,3.0,3.0,94,0.00,,,0.01,Wunderground v.1.15,2013-06-14 08:21:00,
2013-06-14 04:27:00,59.1,57.7,29.91,NNW,328,3.0,4.0,95,0.00,,,0.01,Wunderground v.1.15,2013-06-14 08:27:00,
2013-06-14 04:32:00,59.0,57.6,29.91,NW,326,3.0,3.0,95,0.00,,,0.01,Wunderground v.1.15,2013-06-14 08:32:00,
2013-06-14 04:38:00,58.8,57.4,29.91,NNW,337,3.0,6.0,95,0.00,,,0.01,Wunderground v.1.15,2013-06-14 08:38:00,
2013-06-14 04:43:00,58.7,57.0,29.91,NNW,333,3.0,4.0,94,0.00,,,0.01,Wunderground v.1.15,2013-06-14 08:43:00,
2013-06-14 04:49:00,58.6,56.9,29.91,NNW,330,3.0,4.0,94,0.00,,,0.01,Wunderground v.1.15,2013-06-14 08:49:00,
2013-06-14 04:55:00,58.5,56.8,29.92,NW,314,2.0,4.0,94,0.00,,,0.01,Wunderground v.1.15,2013-06-14 08:55:00,
2013-06-14 05:00:00,58.4,56.7,29.91,NW,315,1.0,1.0,94,0.00,,,0.01,Wunderground v.1.15,2013-06-14 09:00:00,
2013-06-14 05:06:00,58.2,56.5,29.91,NNW,328,1.0,3.0,94,0.00,,,0.01,Wunderground v.1.15,2013-06-14 09:06:00,
2013-06-14 05:12:00,58.1,56.4,29.92,NNW,329,2.0,4.0,94,0.00,,,0.01,Wunderground v.1.15,2013-06-14 09:12:00,
2013-06-14 05:17:00,57.9,56.2,29.92,NW,314,2.0,4.0,94,0.00,,,0.01,Wunderground v.1.15,2013-06-14 09:17:00,
2013-06-14 05:23:00,57.8,56.1,29.93,NW,325,2.0,4.0,94,0.00,,,0.01,Wunderground v.1.15,2013-06-14 09:23:00,
2013-06-14 05:28:00,57.6,55.9,29.93,NW,311,3.0,4.0,94,0.00,,,0.01,Wunderground v.1.15,2013-06-14 09:28:00,
2013-06-14 05:34:00,57.4,55.4,29.93,NW,315,3.0,4.0,93,0.00,,,0.01,Wunderground v.1.15,2013-06-14 09:34:00,
2013-06-14 05:40:00,57.2,55.2,29.94,NW,323,3.0,3.0,93,0.00,,,0.01,Wunderground v.1.15,2013-06-14 09:40:00,
2013-06-14 05:45:00,57.1,55.1,29.94,NW,323,3.0,4.0,93,0.00,,,0.01,Wunderground v.1.15,2013-06-14 09:45:00,
2013-06-14 05:51:00,57.0,55.0,29.94,NNW,328,2.0,3.0,93,0.00,,,0.01,Wunderground v.1.15,2013-06-14 09:51:00,
2013-06-14 05:56:00,56.9,54.9,29.94,NNW,342,3.0,5.0,93,0.00,,,0.01,Wunderground v.1.15,2013-06-14 09:56:00,
2013-06-14 06:02:00,56.8,54.8,29.94,NNW,346,3.0,3.0,93,0.00,,,0.01,Wunderground v.1.15,2013-06-14 10:02:00,
2013-06-14 06:08:00,56.7,54.7,29.94,NNW,342,2.0,3.0,93,0.00,,,0.01,Wunderground v.1.15,2013-06-14 10:08:00,
2013-06-14 06:13:00,56.7,54.7,29.94,North,360,2.0,2.0,93,0.00,,,0.01,Wunderground v.1.15,2013-06-14 10:13:00,
2013-06-14 06:19:00,56.6,54.6,29.94,NNW,332,2.0,3.0,93,0.00,,,0.01,Wunderground v.1.15,2013-06-14 10:19:00,
2013-06-14 06:24:00,56.5,54.5,29.95,NNW,328,2.0,3.0,93,0.00,,,0.01,Wunderground v.1.15,2013-06-14 10:24:00,
2013-06-14 06:30:00,56.4,54.4,29.95,NNW,327,1.0,3.0,93,0.00,,,0.01,Wunderground v.1.15,2013-06-14 10:30:00,
2013-06-14 06:35:00,56.4,54.4,29.95,NW,320,2.0,5.0,93,0.00,,,0.01,Wunderground v.1.15,2013-06-14 10:35:00,
2013-06-14 06:41:00,56.3,54.3,29.95,NNW,348,2.0,4.0,93,0.00,,,0.01,Wunderground v.1.15,2013-06-14 10:41:00,
2013-06-14 06:47:00,56.4,54.1,29.95,NNW,348,1.0,4.0,92,0.00,,,0.01,Wunderground v.1.15,2013-06-14 10:47:00,
2013-06-14 06:52:00,56.4,54.1,29.95,NNW,333,1.0,4.0,92,0.00,,,0.01,Wunderground v.1.15,2013-06-14 10:52:00,
2013-06-14 06:58:00,56.6,54.3,29.95,NNW,348,2.0,4.0,92,0.00,,,0.01,Wunderground v.1.15,2013-06-14 10:58:00,
2013-06-14 07:03:00,56.7,54.4,29.96,NNW,346,2.0,2.0,92,0.00,,,0.01,Wunderground v.1.15,2013-06-14 11:03:00,
2013-06-14 07:09:00,56.9,54.6,29.97,NNW,346,1.0,2.0,92,0.00,,,0.01,Wunderground v.1.15,2013-06-14 11:09:00,
2013-06-14 07:15:00,57.1,54.5,29.97,North,349,1.0,2.0,91,0.00,,,0.01,Wunderground v.1.15,2013-06-14 11:15:00,
2013-06-14 07:20:00,57.3,54.7,29.97,NNW,329,2.0,2.0,91,0.00,,,0.01,Wunderground v.1.15,2013-06-14 11:20:00,
2013-06-14 07:26:00,57.4,54.5,29.97,NNW,333,3.0,7.0,90,0.00,,,0.01,Wunderground v.1.15,2013-06-14 11:26:00,
2013-06-14 07:31:00,57.6,54.7,29.98,North,9,3.0,3.0,90,0.00,,,0.01,Wunderground v.1.15,2013-06-14 11:31:00,
2013-06-14 07:37:00,57.7,54.2,29.98,NNW,332,3.0,6.0,88,0.00,,,0.01,Wunderground v.1.15,2013-06-14 11:37:00,
2013-06-14 07:43:00,57.8,54.3,29.98,NNW,344,4.0,5.0,88,0.00,,,0.01,Wunderground v.1.15,2013-06-14 11:43:00,
2013-06-14 07:48:00,58.1,54.6,29.98,NNW,327,3.0,5.0,88,0.00,,,0.01,Wunderground v.1.15,2013-06-14 11:48:00,
2013-06-14 07:54:00,58.2,54.3,30.00,NNW,336,4.0,7.0,87,0.00,,,0.01,Wunderground v.1.15,2013-06-14 11:54:00,
2013-06-14 08:00:00,58.3,54.4,29.99,NNW,340,5.0,5.0,87,0.00,,,0.01,Wunderground v.1.15,2013-06-14 12:00:00,
2013-06-14 08:05:00,58.8,54.9,29.99,NNW,338,3.0,6.0,87,0.00,,,0.01,Wunderground v.1.15,2013-06-14 12:05:00,
2013-06-14 08:11:00,59.0,54.8,29.99,NNW,331,4.0,4.0,86,0.00,,,0.01,Wunderground v.1.15,2013-06-14 12:11:00,
2013-06-14 08:17:00,59.3,54.1,30.00,ENE,63,5.0,8.0,83,0.00,,,0.01,Wunderground v.1.15,2013-06-14 12:17:00,
2013-06-14 08:22:00,59.6,54.4,29.99,NE,53,4.0,6.0,83,0.00,,,0.01,Wunderground v.1.15,2013-06-14 12:22:00,
2013-06-14 08:28:00,59.9,54.1,29.99,NE,38,3.0,6.0,81,0.00,,,0.01,Wunderground v.1.15,2013-06-14 12:28:00,
2013-06-14 08:33:00,60.0,53.5,29.99,ENE,67,3.0,8.0,79,0.00,,,0.01,Wunderground v.1.15,2013-06-14 12:33:00,
2013-06-14 08:39:00,60.2,53.7,29.99,NNE,16,4.0,8.0,79,0.00,,,0.01,Wunderground v.1.15,2013-06-14 12:39:00,
2013-06-14 08:45:00,60.0,53.1,30.00,North,349,5.0,10.0,78,0.00,,,0.01,Wunderground v.1.15,2013-06-14 12:45:00,
2013-06-14 08:50:00,60.2,53.7,30.00,NW,304,5.0,5.0,79,0.00,,,0.01,Wunderground v.1.15,2013-06-14 12:50:00,
2013-06-14 08:56:00,60.6,53.3,30.00,NNE,28,4.0,9.0,77,0.00,,,0.01,Wunderground v.1.15,2013-06-14 12:56:00,
2013-06-14 09:02:00,60.7,53.4,30.00,NE,43,4.0,4.0,77,0.00,,,0.01,Wunderground v.1.15,2013-06-14 13:02:00,
2013-06-14 09:07:00,61.1,53.5,30.01,North,5,3.0,4.0,76,0.00,,,0.01,Wunderground v.1.15,2013-06-14 13:07:00,
2013-06-14 09:13:00,61.3,54.0,30.01,NNW,329,3.0,6.0,77,0.00,,,0.01,Wunderground v.1.15,2013-06-14 13:13:00,
2013-06-14 09:18:00,61.2,53.9,30.02,NNW,335,4.0,6.0,77,0.00,,,0.01,Wunderground v.1.15,2013-06-14 13:18:00,
2013-06-14 09:24:00,61.3,54.0,30.02,NW,322,4.0,6.0,77,0.00,,,0.01,Wunderground v.1.15,2013-06-14 13:24:00,
2013-06-14 09:29:00,61.5,54.2,30.02,NW,315,4.0,7.0,77,0.00,,,0.01,Wunderground v.1.15,2013-06-14 13:29:00,
2013-06-14 09:35:00,61.7,53.7,30.02,NNW,327,5.0,10.0,75,0.00,,,0.01,Wunderground v.1.15,2013-06-14 13:35:00,
2013-06-14 09:40:00,61.8,53.4,30.03,NE,46,4.0,8.0,74,0.00,,,0.01,Wunderground v.1.15,2013-06-14 13:40:00,
2013-06-14 09:46:00,62.1,53.7,30.03,NNW,327,5.0,8.0,74,0.00,,,0.01,Wunderground v.1.15,2013-06-14 13:46:00,
2013-06-14 09:52:00,62.6,54.2,30.03,NNE,15,4.0,5.0,74,0.00,,,0.01,Wunderground v.1.15,2013-06-14 13:52:00,
2013-06-14 09:57:00,62.9,54.1,30.03,NNW,336,4.0,9.0,73,0.00,,,0.01,Wunderground v.1.15,2013-06-14 13:57:00,
2013-06-14 10:03:00,62.9,53.7,30.03,NNE,12,5.0,5.0,72,0.00,,,0.01,Wunderground v.1.15,2013-06-14 14:03:00,
2013-06-14 10:09:00,63.4,54.2,30.03,NNW,345,4.0,6.0,72,0.00,,,0.01,Wunderground v.1.15,2013-06-14 14:09:00,
2013-06-14 10:14:00,63.4,53.4,30.03,NW,311,4.0,7.0,70,0.00,,,0.01,Wunderground v.1.15,2013-06-14 14:14:00,
2013-06-14 10:20:00,63.3,53.7,30.03,North,5,5.0,6.0,71,0.00,,,0.01,Wunderground v.1.15,2013-06-14 14:20:00,
2013-06-14 10:25:00,63.3,54.1,30.03,ENE,69,5.0,9.0,72,0.00,,,0.01,Wunderground v.1.15,2013-06-14 14:25:00,
2013-06-14 10:31:00,63.6,54.0,30.03,NNW,327,5.0,5.0,71,0.00,,,0.01,Wunderground v.1.15,2013-06-14 14:31:00,
2013-06-14 10:37:00,63.9,53.9,30.03,NE,36,4.0,9.0,70,0.00,,,0.01,Wunderground v.1.15,2013-06-14 14:37:00,
2013-06-14 10:43:00,64.0,54.0,30.04,North,355,5.0,8.0,70,0.00,,,0.01,Wunderground v.1.15,2013-06-14 14:43:00,
2013-06-14 10:48:00,64.3,53.9,30.04,NNW,342,4.0,8.0,69,0.00,,,0.01,Wunderground v.1.15,2013-06-14 14:48:00,
2013-06-14 10:54:00,64.6,54.2,30.04,NNW,344,4.0,6.0,69,0.00,,,0.01,Wunderground v.1.15,2013-06-14 14:54:00,
2013-06-14 11:01:00,64.7,54.7,30.04,NW,322,4.0,7.0,70,0.00,,,0.01,Wunderground v.1.15,2013-06-14 15:01:00,
2013-06-14 11:06:00,65.0,55.4,30.04,NNW,335,4.0,7.0,71,0.00,,,0.01,Wunderground v.1.15,2013-06-14 15:06:00,
2013-06-14 11:12:00,65.0,54.2,30.04,NNW,345,4.0,6.0,68,0.00,,,0.01,Wunderground v.1.15,2013-06-14 15:12:00,
2013-06-14 11:18:00,65.2,55.2,30.04,NE,56,4.0,6.0,70,0.00,,,0.01,Wunderground v.1.15,2013-06-14 15:18:00,
2013-06-14 11:23:00,65.8,54.9,30.04,North,9,3.0,5.0,68,0.00,,,0.01,Wunderground v.1.15,2013-06-14 15:23:00,
2013-06-14 11:29:00,65.9,55.0,30.04,North,5,4.0,9.0,68,0.00,,,0.01,Wunderground v.1.15,2013-06-14 15:29:00,
2013-06-14 11:35:00,66.1,54.4,30.03,NNW,341,4.0,9.0,66,0.00,,,0.01,Wunderground v.1.15,2013-06-14 15:35:00,
2013-06-14 11:40:00,66.0,53.9,30.03,NW,311,5.0,5.0,65,0.00,,,0.01,Wunderground v.1.15,2013-06-14 15:40:00,
2013-06-14 11:45:00,66.1,54.0,30.04,NNW,331,5.0,7.0,65,0.00,,,0.01,Wunderground v.1.15,2013-06-14 15:45:00,
2013-06-14 11:51:00,66.6,54.5,30.04,NW,325,4.0,7.0,65,0.00,,,0.01,Wunderground v.1.15,2013-06-14 15:51:00,
2013-06-14 11:57:00,66.6,54.9,30.04,NW,314,5.0,7.0,66,0.00,,,0.01,Wunderground v.1.15,2013-06-14 15:57:00,
2013-06-14 12:03:00,67.2,54.6,30.05,North,5,4.0,5.0,64,0.00,,,0.01,Wunderground v.1.15,2013-06-14 16:03:00,
2013-06-14 12:09:00,67.1,55.4,30.05,WNW,294,4.0,5.0,66,0.00,,,0.01,Wunderground v.1.15,2013-06-14 16:09:00,
2013-06-14 12:15:00,67.2,54.6,30.05,NNE,18,4.0,6.0,64,0.00,,,0.01,Wunderground v.1.15,2013-06-14 16:15:00,
2013-06-14 12:20:00,67.2,54.6,30.05,NW,318,5.0,5.0,64,0.00,,,0.01,Wunderground v.1.15,2013-06-14 16:20:00,
2013-06-14 12:26:00,67.4,55.6,30.05,WSW,258,4.0,6.0,66,0.00,,,0.01,Wunderground v.1.15,2013-06-14 16:26:00,
2013-06-14 12:31:00,67.9,55.3,30.05,NW,311,4.0,6.0,64,0.00,,,0.01,Wunderground v.1.15,2013-06-14 16:31:00,
2013-06-14 12:37:00,67.8,55.2,30.05,NNE,24,5.0,9.0,64,0.00,,,0.01,Wunderground v.1.15,2013-06-14 16:37:00,
2013-06-14 12:43:00,68.0,55.8,30.04,NNW,344,5.0,9.0,65,0.00,,,0.01,Wunderground v.1.15,2013-06-14 16:43:00,
2013-06-14 12:48:00,67.8,55.2,30.04,NNW,338,5.0,9.0,64,0.00,,,0.01,Wunderground v.1.15,2013-06-14 16:48:00,
2013-06-14 12:54:00,68.0,54.5,30.04,NNE,19,5.0,8.0,62,0.00,,,0.01,Wunderground v.1.15,2013-06-14 16:54:00,
2013-06-14 12:59:00,68.3,55.2,30.04,NW,306,4.0,10.0,63,0.00,,,0.01,Wunderground v.1.15,2013-06-14 16:59:00,
2013-06-14 13:05:00,68.6,56.4,30.04,WNW,290,4.0,7.0,65,0.00,,,0.01,Wunderground v.1.15,2013-06-14 17:05:00,
2013-06-14 13:11:00,68.7,56.5,30.04,WNW,295,4.0,4.0,65,0.00,,,0.01,Wunderground v.1.15,2013-06-14 17:11:00,
2013-06-14 13:16:00,69.4,57.5,30.04,North,10,3.0,6.0,66,0.00,,,0.01,Wunderground v.1.15,2013-06-14 17:16:00,
2013-06-14 13:22:00,69.2,55.6,30.03,NW,310,3.0,6.0,62,0.00,,,0.01,Wunderground v.1.15,2013-06-14 17:22:00,
2013-06-14 13:27:00,69.2,55.6,30.03,NW,322,5.0,6.0,62,0.00,,,0.01,Wunderground v.1.15,2013-06-14 17:27:00,
2013-06-14 13:33:00,69.7,57.0,30.03,West,261,4.0,4.0,64,0.00,,,0.01,Wunderground v.1.15,2013-06-14 17:33:00,
2013-06-14 13:38:00,70.1,56.5,30.03,NNW,338,2.0,7.0,62,0.00,,,0.01,Wunderground v.1.15,2013-06-14 17:38:00,
2013-06-14 13:44:00,70.0,56.8,30.03,NW,309,4.0,9.0,63,0.00,,,0.01,Wunderground v.1.15,2013-06-14 17:44:00,
2013-06-14 13:50:00,69.9,57.2,30.03,NW,325,4.0,4.0,64,0.00,,,0.01,Wunderground v.1.15,2013-06-14 17:50:00,
2013-06-14 13:55:00,70.4,56.8,30.03,North,355,4.0,8.0,62,0.00,,,0.01,Wunderground v.1.15,2013-06-14 17:55:00,
2013-06-14 14:00:00,70.3,57.1,30.03,WNW,285,4.0,4.0,63,0.00,,,0.01,Wunderground v.1.15,2013-06-14 18:00:00,
2013-06-14 14:06:00,70.7,58.4,30.03,NW,306,4.0,6.0,65,0.00,,,0.01,Wunderground v.1.15,2013-06-14 18:06:00,
2013-06-14 14:11:00,71.0,55.9,30.03,North,5,3.0,6.0,59,0.00,,,0.01,Wunderground v.1.15,2013-06-14 18:11:00,
2013-06-14 14:17:00,70.8,55.3,30.03,NNW,329,4.0,7.0,58,0.00,,,0.01,Wunderground v.1.15,2013-06-14 18:17:00,
2013-06-14 14:22:00,70.2,56.1,30.02,North,351,5.0,5.0,61,0.00,,,0.01,Wunderground v.1.15,2013-06-14 18:22:00,
2013-06-14 14:28:00,69.9,56.3,30.02,NNW,348,5.0,7.0,62,0.00,,,0.01,Wunderground v.1.15,2013-06-14 18:28:00,
2013-06-14 14:33:00,70.2,55.2,30.02,North,355,6.0,10.0,59,0.00,,,0.01,Wunderground v.1.15,2013-06-14 18:33:00,
2013-06-14 14:39:00,70.7,56.1,30.02,North,5,5.0,10.0,60,0.00,,,0.01,Wunderground v.1.15,2013-06-14 18:39:00,
2013-06-14 14:44:00,70.9,56.3,30.02,ESE,102,4.0,5.0,60,0.00,,,0.01,Wunderground v.1.15,2013-06-14 18:44:00,
2013-06-14 14:50:00,71.4,56.8,30.02,North,355,3.0,6.0,60,0.00,,,0.01,Wunderground v.1.15,2013-06-14 18:50:00,
2013-06-14 14:56:00,71.4,56.8,30.02,NW,315,4.0,8.0,60,0.00,,,0.01,Wunderground v.1.15,2013-06-14 18:56:00,
2013-06-14 15:01:00,71.2,56.6,30.02,NW,304,5.0,6.0,60,0.00,,,0.01,Wunderground v.1.15,2013-06-14 19:01:00,
2013-06-14 15:07:00,71.2,56.6,30.02,NNW,343,4.0,7.0,60,0.00,,,0.01,Wunderground v.1.15,2013-06-14 19:07:00,
2013-06-14 15:12:00,71.6,54.1,30.02,NNW,338,3.0,4.0,54,0.00,,,0.01,Wunderground v.1.15,2013-06-14 19:12:00,
2013-06-14 15:18:00,72.1,57.4,30.02,NE,54,3.0,4.0,60,0.00,,,0.01,Wunderground v.1.15,2013-06-14 19:18:00,
2013-06-14 15:24:00,72.3,55.7,30.01,North,360,3.0,5.0,56,0.00,,,0.01,Wunderground v.1.15,2013-06-14 19:24:00,
2013-06-14 15:29:00,72.3,55.7,30.01,NE,38,4.0,8.0,56,0.00,,,0.01,Wunderground v.1.15,2013-06-14 19:29:00,
2013-06-14 15:35:00,72.3,55.7,30.01,NE,52,5.0,5.0,56,0.00,,,0.01,Wunderground v.1.15,2013-06-14 19:35:00,
2013-06-14 15:40:00,72.4,55.3,30.01,ENE,75,3.0,5.0,55,0.00,,,0.01,Wunderground v.1.15,2013-06-14 19:40:00,
2013-06-14 15:46:00,72.4,55.8,30.00,NW,314,3.0,6.0,56,0.00,,,0.01,Wunderground v.1.15,2013-06-14 19:46:00,
2013-06-14 15:52:00,72.8,57.2,30.00,NW,306,3.0,5.0,58,0.00,,,0.01,Wunderground v.1.15,2013-06-14 19:52:00,
2013-06-14 15:57:00,73.1,54.4,30.00,North,5,2.0,7.0,52,0.00,,,0.01,Wunderground v.1.15,2013-06-14 19:57:00,
2013-06-14 16:03:00,73.1,51.7,30.00,East,82,3.0,5.0,47,0.00,,,0.01,Wunderground v.1.15,2013-06-14 20:03:00,
2013-06-14 16:09:00,73.1,55.5,30.00,North,9,2.0,5.0,54,0.00,,,0.01,Wunderground v.1.15,2013-06-14 20:09:00,
2013-06-14 16:14:00,73.2,53.4,30.00,NNW,343,3.0,4.0,50,0.00,,,0.01,Wunderground v.1.15,2013-06-14 20:14:00,
2013-06-14 16:20:00,73.5,53.7,30.00,NE,39,3.0,6.0,50,0.00,,,0.01,Wunderground v.1.15,2013-06-14 20:20:00,
2013-06-14 16:25:00,73.5,53.2,30.00,WNW,292,3.0,6.0,49,0.00,,,0.01,Wunderground v.1.15,2013-06-14 20:25:00,
2013-06-14 16:31:00,73.4,53.6,30.01,NE,56,3.0,3.0,50,0.00,,,0.01,Wunderground v.1.15,2013-06-14 20:31:00,
2013-06-14 16:37:00,73.4,55.7,30.00,West,260,3.0,4.0,54,0.00,,,0.01,Wunderground v.1.15,2013-06-14 20:37:00,
2013-06-14 16:43:00,73.7,53.3,30.00,WNW,283,3.0,5.0,49,0.00,,,0.01,Wunderground v.1.15,2013-06-14 20:43:00,
2013-06-14 16:49:00,73.9,53.5,30.00,NNE,17,2.0,6.0,49,0.00,,,0.01,Wunderground v.1.15,2013-06-14 20:49:00,
2013-06-14 16:54:00,74.5,53.5,30.01,NE,36,1.0,6.0,48,0.00,,,0.01,Wunderground v.1.15,2013-06-14 20:54:00,
2013-06-14 17:00:00,74.7,53.7,30.00,NNW,344,2.0,2.0,48,0.00,,,0.01,Wunderground v.1.15,2013-06-14 21:00:00,
2013-06-14 17:06:00,75.0,55.1,30.01,NNW,331,2.0,5.0,50,0.00,,,0.01,Wunderground v.1.15,2013-06-14 21:06:00,
2013-06-14 17:11:00,74.4,55.1,30.01,NW,315,3.0,3.0,51,0.00,,,0.01,Wunderground v.1.15,2013-06-14 21:11:00,
2013-06-14 17:17:00,74.4,52.9,30.01,NW,316,3.0,8.0,47,0.00,,,0.01,Wunderground v.1.15,2013-06-14 21:17:00,
2013-06-14 17:22:00,74.3,53.3,30.01,NNW,337,3.0,8.0,48,0.00,,,0.01,Wunderground v.1.15,2013-06-14 21:22:00,
2013-06-14 17:28:00,73.9,53.0,30.01,NW,324,3.0,8.0,48,0.00,,,0.01,Wunderground v.1.15,2013-06-14 21:28:00,
2013-06-14 17:34:00,74.0,51.9,30.01,NW,321,3.0,7.0,46,0.00,,,0.01,Wunderground v.1.15,2013-06-14 21:34:00,
2013-06-14 17:39:00,73.9,53.5,30.01,North,350,3.0,7.0,49,0.00,,,0.01,Wunderground v.1.15,2013-06-14 21:39:00,
2013-06-14 17:45:00,74.0,53.6,30.01,NW,308,3.0,4.0,49,0.00,,,0.01,Wunderground v.1.15,2013-06-14 21:45:00,
2013-06-14 17:50:00,74.3,53.9,30.01,NW,323,2.0,5.0,49,0.00,,,0.01,Wunderground v.1.15,2013-06-14 21:50:00,
2013-06-14 17:56:00,74.2,54.4,30.01,ESE,123,3.0,6.0,50,0.00,,,0.01,Wunderground v.1.15,2013-06-14 21:56:00,
2013-06-14 18:02:00,73.8,54.5,30.01,NW,321,3.0,5.0,51,0.00,,,0.01,Wunderground v.1.15,2013-06-14 22:02:00,
2013-06-14 18:07:00,73.8,54.0,30.01,NNW,340,3.0,6.0,50,0.00,,,0.01,Wunderground v.1.15,2013-06-14 22:07:00,
2013-06-14 18:13:00,74.0,53.6,30.01,North,11,2.0,4.0,49,0.00,,,0.01,Wunderground v.1.15,2013-06-14 22:13:00,
2013-06-14 18:18:00,73.6,53.8,30.00,NNW,333,3.0,7.0,50,0.00,,,0.01,Wunderground v.1.15,2013-06-14 22:18:00,
2013-06-14 18:24:00,73.2,53.4,30.00,West,269,4.0,6.0,50,0.00,,,0.01,Wunderground v.1.15,2013-06-14 22:24:00,
2013-06-14 18:29:00,72.9,52.6,30.00,NNE,15,4.0,8.0,49,0.00,,,0.01,Wunderground v.1.15,2013-06-14 22:29:00,
2013-06-14 18:35:00,72.9,53.7,30.00,NW,315,3.0,4.0,51,0.00,,,0.01,Wunderground v.1.15,2013-06-14 22:35:00,
2013-06-14 18:41:00,73.1,53.4,30.00,NNE,13,3.0,3.0,50,0.00,,,0.01,Wunderground v.1.15,2013-06-14 22:41:00,
2013-06-14 18:46:00,72.8,53.6,30.00,NW,315,3.0,6.0,51,0.00,,,0.01,Wunderground v.1.15,2013-06-14 22:46:00,
2013-06-14 18:52:00,72.8,52.5,30.00,North,360,3.0,4.0,49,0.00,,,0.01,Wunderground v.1.15,2013-06-14 22:52:00,
2013-06-14 18:57:00,72.6,52.3,30.01,NNW,340,4.0,7.0,49,0.00,,,0.01,Wunderground v.1.15,2013-06-14 22:57:00,
2013-06-14 19:03:00,72.6,53.4,30.00,WNW,302,3.0,6.0,51,0.00,,,0.01,Wunderground v.1.15,2013-06-14 23:03:00,
2013-06-14 19:09:00,72.6,51.8,30.00,NW,311,3.0,6.0,48,0.00,,,0.01,Wunderground v.1.15,2013-06-14 23:09:00,
2013-06-14 19:14:00,72.4,52.7,30.00,NW,314,3.0,5.0,50,0.00,,,0.01,Wunderground v.1.15,2013-06-14 23:14:00,
2013-06-14 19:20:00,72.4,53.2,30.01,WNW,301,3.0,3.0,51,0.00,,,0.01,Wunderground v.1.15,2013-06-14 23:20:00,
2013-06-14 19:25:00,72.3,52.1,30.01,NNW,339,3.0,5.0,49,0.00,,,0.01,Wunderground v.1.15,2013-06-14 23:25:00,
2013-06-14 19:31:00,72.2,52.0,30.00,North,351,2.0,2.0,49,0.00,,,0.01,Wunderground v.1.15,2013-06-14 23:31:00,
2013-06-14 19:37:00,72.3,51.5,30.00,North,10,2.0,5.0,48,0.00,,,0.01,Wunderground v.1.15,2013-06-14 23:37:00,
2013-06-14 19:42:00,72.0,50.7,30.00,North,360,3.0,6.0,47,0.00,,,0.01,Wunderground v.1.15,2013-06-14 23:42:00,
2013-06-14 19:48:00,71.7,51.0,30.00,NNE,23,3.0,6.0,48,0.00,,,0.01,Wunderground v.1.15,2013-06-14 23:48:00,
2013-06-14 19:53:00,71.6,51.4,30.00,NNW,329,1.0,3.0,49,0.00,,,0.01,Wunderground v.1.15,2013-06-14 23:53:00,
2013-06-14 19:59:00,71.7,51.0,30.00,NE,40,1.0,3.0,48,0.00,,,0.01,Wunderground v.1.15,2013-06-14 23:59:00,
2013-06-14 20:04:00,71.5,49.6,30.00,NE,41,1.0,4.0,46,0.00,,,0.01,Wunderground v.1.15,2013-06-15 00:04:00,
2013-06-14 20:10:00,71.5,50.2,30.00,NE,41,1.0,1.0,47,0.00,,,0.01,Wunderground v.1.15,2013-06-15 00:10:00,
2013-06-14 20:16:00,71.3,50.6,30.00,NE,41,0.0,1.0,48,0.00,,,0.01,Wunderground v.1.15,2013-06-15 00:16:00,
2013-06-14 20:21:00,71.1,51.0,30.00,WNW,288,0.0,0.0,49,0.00,,,0.01,Wunderground v.1.15,2013-06-15 00:21:00,
2013-06-14 20:27:00,70.9,49.7,30.00,WNW,288,0.0,0.0,47,0.00,,,0.01,Wunderground v.1.15,2013-06-15 00:27:00,
2013-06-14 20:32:00,70.7,51.1,30.00,WNW,288,0.0,0.0,50,0.00,,,0.01,Wunderground v.1.15,2013-06-15 00:32:00,
2013-06-14 20:38:00,70.1,51.1,29.99,WNW,288,0.0,0.0,51,0.00,,,0.01,Wunderground v.1.15,2013-06-15 00:38:00,
2013-06-14 20:44:00,69.2,50.8,29.99,WNW,288,0.0,0.0,52,0.00,,,0.01,Wunderground v.1.15,2013-06-15 00:44:00,
2013-06-14 20:49:00,68.4,49.6,30.00,WNW,288,0.0,0.0,51,0.00,,,0.01,Wunderground v.1.15,2013-06-15 00:49:00,
2013-06-14 20:55:00,68.0,48.7,30.00,WNW,288,0.0,1.0,50,0.00,,,0.01,Wunderground v.1.15,2013-06-15 00:55:00,
2013-06-14 21:00:00,67.7,48.4,29.99,WNW,288,0.0,0.0,50,0.00,,,0.01,Wunderground v.1.15,2013-06-15 01:00:00,
2013-06-14 21:06:00,67.2,49.0,30.00,WNW,288,0.0,0.0,52,0.00,,,0.01,Wunderground v.1.15,2013-06-15 01:06:00,
2013-06-14 21:11:00,66.7,50.0,30.00,WNW,288,0.0,0.0,55,0.00,,,0.01,Wunderground v.1.15,2013-06-15 01:11:00,
2013-06-14 21:17:00,65.8,50.6,30.00,WNW,288,0.0,0.0,58,0.00,,,0.01,Wunderground v.1.15,2013-06-15 01:17:00,
2013-06-14 21:23:00,65.0,49.9,30.00,WNW,288,0.0,0.0,58,0.00,,,0.01,Wunderground v.1.15,2013-06-15 01:23:00,
2013-06-14 21:28:00,64.5,50.3,30.00,WNW,288,0.0,0.0,60,0.00,,,0.01,Wunderground v.1.15,2013-06-15 01:28:00,
2013-06-14 21:34:00,64.0,49.8,30.00,WNW,288,0.0,0.0,60,0.00,,,0.01,Wunderground v.1.15,2013-06-15 01:34:00,
2013-06-14 21:39:00,63.7,50.4,30.01,WNW,288,0.0,0.0,62,0.00,,,0.01,Wunderground v.1.15,2013-06-15 01:39:00,
2013-06-14 21:45:00,63.4,49.7,30.01,WNW,288,0.0,0.0,61,0.00,,,0.01,Wunderground v.1.15,2013-06-15 01:45:00,
2013-06-14 21:51:00,63.1,49.4,30.01,WNW,288,0.0,0.0,61,0.00,,,0.01,Wunderground v.1.15,2013-06-15 01:51:00,
2013-06-14 21:56:00,62.9,50.5,30.01,WNW,288,0.0,0.0,64,0.00,,,0.01,Wunderground v.1.15,2013-06-15 01:56:00,
2013-06-14 22:02:00,62.6,51.1,30.01,WNW,288,0.0,0.0,66,0.00,,,0.01,Wunderground v.1.15,2013-06-15 02:02:00,
2013-06-14 22:07:00,62.3,49.5,30.01,WNW,288,0.0,0.0,63,0.00,,,0.01,Wunderground v.1.15,2013-06-15 02:07:00,
2013-06-14 22:13:00,62.0,49.7,30.02,WNW,288,0.0,0.0,64,0.00,,,0.01,Wunderground v.1.15,2013-06-15 02:13:00,
2013-06-14 22:19:00,61.7,50.2,30.02,WNW,288,0.0,0.0,66,0.00,,,0.01,Wunderground v.1.15,2013-06-15 02:19:00,
2013-06-14 22:24:00,61.5,50.0,30.02,WNW,288,0.0,0.0,66,0.00,,,0.01,Wunderground v.1.15,2013-06-15 02:24:00,
2013-06-14 22:30:00,61.2,49.7,30.02,WNW,288,0.0,0.0,66,0.00,,,0.01,Wunderground v.1.15,2013-06-15 02:30:00,
2013-06-14 22:36:00,60.8,49.4,30.02,WNW,289,0.0,0.0,66,0.00,,,0.01,Wunderground v.1.15,2013-06-15 02:36:00,
2013-06-14 22:41:00,60.6,49.6,30.02,WNW,289,0.0,0.0,67,0.00,,,0.01,Wunderground v.1.15,2013-06-15 02:41:00,
2013-06-14 22:47:00,61.1,50.5,30.02,WNW,288,0.0,0.0,68,0.00,,,0.01,Wunderground v.1.15,2013-06-15 02:47:00,
2013-06-14 22:53:00,61.2,50.6,30.02,WNW,288,0.0,0.0,68,0.00,,,0.01,Wunderground v.1.15,2013-06-15 02:53:00,
2013-06-14 22:58:00,60.9,50.7,30.02,WNW,288,0.0,0.0,69,0.00,,,0.01,Wunderground v.1.15,2013-06-15 02:58:00,
2013-06-14 23:04:00,60.8,51.0,30.02,WNW,288,0.0,0.0,70,0.00,,,0.01,Wunderground v.1.15,2013-06-15 03:04:00,
2013-06-14 23:09:00,60.5,51.0,30.02,WNW,288,0.0,0.0,71,0.00,,,0.01,Wunderground v.1.15,2013-06-15 03:09:00,
2013-06-14 23:15:00,60.1,50.7,30.02,WNW,288,0.0,0.0,71,0.00,,,0.01,Wunderground v.1.15,2013-06-15 03:15:00,
2013-06-14 23:21:00,59.9,50.8,30.02,WNW,288,0.0,0.0,72,0.00,,,0.01,Wunderground v.1.15,2013-06-15 03:21:00,
2013-06-14 23:26:00,60.0,50.9,30.02,WNW,288,0.0,0.0,72,0.00,,,0.01,Wunderground v.1.15,2013-06-15 03:26:00,
2013-06-14 23:32:00,59.9,52.7,30.02,WNW,288,0.0,0.0,77,0.00,,,0.01,Wunderground v.1.15,2013-06-15 03:32:00,
2013-06-14 23:37:00,59.6,51.7,30.02,WNW,288,0.0,0.0,75,0.00,,,0.01,Wunderground v.1.15,2013-06-15 03:37:00,
2013-06-14 23:43:00,59.3,51.7,30.02,WNW,288,0.0,0.0,76,0.00,,,0.01,Wunderground v.1.15,2013-06-15 03:43:00,
2013-06-14 23:49:00,59.2,51.6,30.01,WNW,288,0.0,0.0,76,0.00,,,0.01,Wunderground v.1.15,2013-06-15 03:49:00,
2013-06-14 23:54:00,59.3,51.7,30.01,WNW,288,0.0,0.0,76,0.00,,,0.01,Wunderground v.1.15,2013-06-15 03:54:00,